Location: Newark
(36.1358°N, 115.1208°W)
Time: 12:07:08
(UTC+00:00)

Vanguard 1 Rocket - Pass Details

Date: 20 February 2020
Orbit: 650 x 4226 km, 34.3° (Epoch: 05 April)

Event Time Altitude Azimuth Distance (km) Brightness Sun altitude
Rises 07:33:06 0° 208° (SSW) 6,399 - -64.5°
Reaches altitude 10° 07:39:37 10° 194° (SSW) 4,619 - -64.7°
Maximum altitude 07:46:47 19° 156° (SSE) 3,080 - -64.9°
Drops below altitude 10° 07:51:49 10° 114° (ESE) 3,073 - -64.9°
Sets 07:54:56 0° 95° (E) 3,663 - -64.9°
